Flag for India Weather past 2 weeks in New Okhla Industrial Development Authority, Uttar Pradesh, India

Now
91 °F

Haze.


Feels Like: 103 °F
Forecast: 83 / 98 °F
Wind: 7 mph from West

Location: New Delhi Palam Airport

Current Time: Aug 30, 2015 at 8:17:52 PM

Latest Report: Aug 30, 2015 at 7:30 PM


Visibility: 2 mi

Pressure: 29.56 "Hg

Humidity: 59%

Dew point: 75 °F

Location of New Okhla Industrial Development AuthorityLocation

Historic Weather in New Okhla Industrial Development Authority — Graph

°F

New Okhla Industrial Development Authority temperature yesterday

Maximum temperature yesterday: 99 °F (at 3:00 PM)
Minimum temperature yesterday: 81 °F (at 4:00 AM)
Average temperature yesterday: 89 °F

Past Weeks' High & Low Weather Summary

 TemperatureHumidityPressure
High99 °F (Aug 28, 2:30 PM)100% (Aug 16, 5:00 AM)29.74 "Hg (Aug 16, 5:00 AM)
Low75 °F (Aug 23, 11:30 PM)42% (Aug 29, 3:00 PM)29.56 "Hg (Aug 17, 3:30 PM)
Average87 °F71%29.63 "Hg
* Reported Aug 15 6:30 PM — Aug 30 7:00 PM, New Okhla Industrial Development Authority, Weather by CustomWeather, © 2015

Note: Actual official high and low records may vary slightly from our data, if they occured in-between our weather recording intervals... More about our weather records

Advertising

New Okhla Industrial Development Authority weather history for previous 24 hours

 ConditionsComfort  
Time TempWeatherWind HumidityBarometerVisibility
7:00 PM
Sun, Aug 30
93 °FHaze.8 mph56%29.56 "Hg2 mi
6:30 PM93 °FHaze.8 mph56%29.56 "Hg2 mi
6:00 PM93 °FScattered clouds.9 mph56%29.56 "Hg2 mi
5:30 PM95 °FScattered clouds.12 mph50%29.56 "Hg2 mi
5:00 PM97 °FScattered clouds.10 mph44%29.56 "Hg2 mi
4:30 PM97 °FScattered clouds.12 mph44%29.56 "Hg2 mi
4:00 PM97 °FScattered clouds.12 mph44%29.59 "Hg2 mi
3:30 PM97 °FScattered clouds.10 mph44%29.62 "Hg2 mi
3:00 PM97 °FScattered clouds.12 mph44%29.62 "Hg2 mi
2:30 PM97 °FScattered clouds.13 mph47%29.62 "Hg2 mi
2:00 PM97 °FScattered clouds.12 mph50%29.65 "Hg2 mi
1:30 PM97 °FScattered clouds.12 mph50%29.65 "Hg2 mi
1:00 PM97 °FScattered clouds.12 mph50%29.65 "Hg2 mi
12:30 PM97 °FScattered clouds.10 mph50%29.65 "Hg2 mi
12:00 PM95 °FScattered clouds.9 mph53%29.65 "Hg2 mi
11:30 AM93 °FScattered clouds.13 mph56%29.68 "Hg2 mi
11:00 AM91 °FScattered clouds.12 mph59%29.68 "Hg2 mi
10:30 AM91 °FScattered clouds.14 mph59%29.68 "Hg2 mi
10:00 AM91 °FScattered clouds.13 mph56%29.68 "Hg2 mi
8:30 AM86 °FFog.10 mph66%29.68 "Hg2 mi
8:00 AM84 °FFog.7 mph79%29.65 "Hg1 mi
7:30 AM84 °FFog.7 mph79%29.65 "Hg1 mi
7:00 AM84 °FFog.5 mph79%29.65 "Hg1 mi
6:30 AM84 °FFog.6 mph79%29.65 "Hg1 mi
6:00 AM84 °FFog.No wind84%29.62 "Hg1 mi
5:30 AM84 °FFog.No wind84%29.62 "Hg1 mi
5:00 AM84 °FFog.No wind84%29.62 "Hg1 mi
4:30 AM84 °FFog.No wind84%29.62 "Hg1 mi
4:00 AM84 °FFog.No wind84%29.62 "Hg1 mi
3:30 AM86 °FFog.No wind79%29.62 "Hg1 mi
2:30 AM88 °FPassing clouds.No wind62%29.62 "Hg1 mi
2:00 AM88 °FPassing clouds.No wind62%29.62 "Hg1 mi
1:30 AM88 °FPassing clouds.5 mph62%29.62 "Hg1 mi
1:00 AM90 °FPassing clouds.5 mph59%29.62 "Hg1 mi
12:30 AM90 °FPassing clouds.5 mph59%29.65 "Hg1 mi
12:00 AM90 °FPassing clouds.3 mph59%29.65 "Hg1 mi
11:30 PM
Sat, Aug 29
90 °FHaze.5 mph63%29.62 "Hg1 mi
11:00 PM90 °FHaze.5 mph67%29.62 "Hg1 mi
10:30 PM90 °FHaze.5 mph67%29.62 "Hg1 mi
9:30 PM90 °FHaze.7 mph59%29.59 "Hg2 mi
9:00 PM90 °FHaze.6 mph55%29.59 "Hg2 mi
8:30 PM90 °FHaze.6 mph55%29.59 "Hg2 mi
8:00 PM90 °FHaze.7 mph55%29.59 "Hg2 mi
Weather by CustomWeather, © 2015

See weather overviewHow to use our weather pages